• In Hungary
  • List of Countries
  • For 7 days
  • Water Temperature
  • Satellite Maps
  • Weather Map
  • News
  • Weather Widgets
  • user-avatar
    Login

    Hourly Weather Akordat

    Today, 19 February, Monday

    Time Temperature Precipitation Wind Pressure Humidity
    00:00 +29°C° 0 mm 2 mps 707 mmHg 47%
    01:00 +28°C° 0 mm 2 mps 707 mmHg 49%
    02:00 +27°C° 0 mm 2 mps 707 mmHg 51%
    03:00 +26°C° 0 mm 1 mps 706 mmHg 53%
    04:00 +26°C° 0 mm 1 mps 706 mmHg 55%
    05:00 +25°C° 0 mm 1 mps 706 mmHg 57%
    06:00 +25°C° 0 mm 1 mps 706 mmHg 58%
    07:00 +26°C° 0 mm 1 mps 707 mmHg 55%
    08:00 +26°C° 0 mm 1 mps 707 mmHg 52%
    09:00 +27°C° 0 mm 1 mps 708 mmHg 49%
    10:00 +29°C° 0 mm 1 mps 707 mmHg 41%
    11:00 +31°C° 0 mm 2 mps 707 mmHg 33%
    12:00 +34°C° 0 mm 2 mps 707 mmHg 25%
    13:00 +35°C° 0 mm 2 mps 707 mmHg 22%
    14:00 +36°C° 0 mm 3 mps 706 mmHg 18%
    15:00 +37°C° 0 mm 4 mps 706 mmHg 15%
    16:00 +37°C° 0 mm 4 mps 705 mmHg 15%
    17:00 +37°C° 0 mm 5 mps 705 mmHg 15%
    18:00 +36°C° 0 mm 5 mps 705 mmHg 16%
    19:00 +35°C° 0 mm 4 mps 706 mmHg 19%
    20:00 +33°C° 0 mm 4 mps 706 mmHg 22%
    21:00 +31°C° 0 mm 3 mps 706 mmHg 25%
    22:00 +30°C° 0 mm 3 mps 706 mmHg 29%
    23:00 +29°C° 0 mm 2 mps 706 mmHg 33%

    Tomorrow, 20 February, Tuesday

    Time Temperature Precipitation Wind Pressure Humidity
    00:00 +28°C° 0 mm 2 mps 706 mmHg 36%
    01:00 +28°C° 0 mm 2 mps 706 mmHg 39%
    02:00 +27°C° 0 mm 1 mps 706 mmHg 42%
    03:00 +26°C° 0 mm 1 mps 706 mmHg 45%
    04:00 +26°C° 0 mm 1 mps 706 mmHg 47%
    05:00 +25°C° 0 mm 1 mps 706 mmHg 48%
    06:00 +24°C° 0 mm 1 mps 706 mmHg 50%
    07:00 +26°C° 0 mm 1 mps 706 mmHg 46%
    08:00 +25°C° 0 mm 0 mps 707 mmHg 42%
    09:00 +26°C° 0 mm 0 mps 707 mmHg 39%
    10:00 +28°C° 0 mm 0 mps 707 mmHg 32%
    11:00 +32°C° 0 mm 1 mps 707 mmHg 25%
    12:00 +34°C° 0 mm 1 mps 706 mmHg 19%
    13:00 +36°C° 0 mm 2 mps 706 mmHg 16%
    14:00 +37°C° 0 mm 3 mps 705 mmHg 13%
    15:00 +38°C° 0 mm 4 mps 704 mmHg 11%
    16:00 +38°C° 0 mm 4 mps 704 mmHg 11%
    17:00 +37°C° 0 mm 5 mps 704 mmHg 11%
    18:00 +37°C° 0 mm 5 mps 704 mmHg 11%
    19:00 +35°C° 0 mm 4 mps 704 mmHg 13%
    20:00 +34°C° 0 mm 3 mps 705 mmHg 14%
    21:00 +32°C° 0 mm 2 mps 705 mmHg 15%
    22:00 +31°C° 0 mm 1 mps 705 mmHg 17%
    23:00 +30°C° 0 mm 1 mps 705 mmHg 18%

    Day after tomorrow, 21 February, Wednesday

    Time Temperature Precipitation Wind Pressure Humidity
    00:00 +29°C° 0 mm 1 mps 705 mmHg 19%
    01:00 +29°C° 0 mm 1 mps 705 mmHg 21%
    02:00 +28°C° 0 mm 1 mps 705 mmHg 22%
    03:00 +27°C° 0 mm 1 mps 704 mmHg 24%
    04:00 +27°C° 0 mm 1 mps 704 mmHg 25%
    05:00 +26°C° 0 mm 1 mps 704 mmHg 27%
    06:00 +23°C° 0 mm 0 mps 705 mmHg 28%
    07:00 +25°C° 0 mm 0 mps 705 mmHg 26%
    08:00 +27°C° 0 mm 0 mps 706 mmHg 24%
    09:00 +28°C° 0 mm 0 mps 706 mmHg 21%
    10:00 +32°C° 0 mm 1 mps 706 mmHg 18%
    11:00 +33°C° 0 mm 1 mps 706 mmHg 16%
    12:00 +35°C° 0 mm 1 mps 706 mmHg 13%
    13:00 +37°C° 0 mm 2 mps 706 mmHg 12%
    14:00 +37°C° 0 mm 3 mps 705 mmHg 10%
    15:00 +38°C° 0 mm 4 mps 704 mmHg 9%
    16:00 +38°C° 0 mm 4 mps 704 mmHg 10%
    17:00 +37°C° 0 mm 4 mps 704 mmHg 11%
    18:00 +37°C° 0 mm 4 mps 704 mmHg 11%
    19:00 +36°C° 0 mm 3 mps 705 mmHg 13%
    20:00 +34°C° 0 mm 3 mps 705 mmHg 15%
    21:00 +32°C° 0 mm 2 mps 706 mmHg 17%
    22:00 +31°C° 0 mm 1 mps 706 mmHg 19%
    23:00 +30°C° 0 mm 1 mps 705 mmHg 21%

    22 February, Thursday

    Time Temperature Precipitation Wind Pressure Humidity
    00:00 +30°C° 0 mm 1 mps 705 mmHg 24%
    01:00 +29°C° 0 mm 1 mps 705 mmHg 25%
    02:00 +28°C° 0 mm 1 mps 704 mmHg 27%
    03:00 +28°C° 0 mm 1 mps 704 mmHg 28%
    04:00 +27°C° 0 mm 1 mps 704 mmHg 29%
    05:00 +27°C° 0 mm 1 mps 704 mmHg 29%
    06:00 +26°C° 0 mm 1 mps 704 mmHg 30%
    07:00 +28°C° 0 mm 1 mps 705 mmHg 26%
    08:00 +30°C° 0 mm 1 mps 706 mmHg 22%
    09:00 +32°C° 0 mm 1 mps 707 mmHg 19%
    10:00 +33°C° 0 mm 1 mps 706 mmHg 16%
    11:00 +35°C° 0 mm 1 mps 706 mmHg 14%
    12:00 +37°C° 0 mm 1 mps 706 mmHg 11%
    13:00 +38°C° 0 mm 2 mps 705 mmHg 11%
    14:00 +39°C° 0 mm 2 mps 704 mmHg 10%
    15:00 +40°C° 0 mm 3 mps 704 mmHg 10%
    16:00 +40°C° 0 mm 3 mps 704 mmHg 10%
    17:00 +40°C° 0 mm 4 mps 704 mmHg 11%
    18:00 +40°C° 0 mm 4 mps 704 mmHg 11%
    19:00 +38°C° 0 mm 4 mps 705 mmHg 14%
    20:00 +36°C° 0 mm 3 mps 705 mmHg 17%
    21:00 +35°C° 0 mm 3 mps 706 mmHg 21%
    22:00 +34°C° 0 mm 2 mps 705 mmHg 24%
    23:00 +32°C° 0 mm 2 mps 705 mmHg 28%

    23 February, Friday

    Time Temperature Precipitation Wind Pressure Humidity
    00:00 +31°C° 0 mm 2 mps 705 mmHg 31%
    01:00 +30°C° 0 mm 2 mps 705 mmHg 33%
    02:00 +30°C° 0 mm 1 mps 705 mmHg 35%
    03:00 +29°C° 0 mm 1 mps 704 mmHg 37%
    04:00 +28°C° 0 mm 1 mps 704 mmHg 38%
    05:00 +28°C° 0 mm 1 mps 704 mmHg 39%
    06:00 +27°C° 0 mm 1 mps 705 mmHg 40%
    07:00 +29°C° 0 mm 1 mps 705 mmHg 36%
    08:00 +30°C° 0 mm 1 mps 706 mmHg 32%
    09:00 +32°C° 0 mm 1 mps 706 mmHg 28%
    10:00 +34°C° 0 mm 1 mps 706 mmHg 23%
    11:00 +35°C° 0 mm 1 mps 706 mmHg 18%
    12:00 +37°C° 0 mm 1 mps 706 mmHg 13%
    13:00 +39°C° 0 mm 1 mps 705 mmHg 12%
    14:00 +40°C° 0 mm 2 mps 704 mmHg 10%
    15:00 +41°C° 0 mm 2 mps 704 mmHg 9%
    16:00 +40°C° 0 mm 2 mps 704 mmHg 9%
    17:00 +40°C° 0 mm 3 mps 704 mmHg 9%
    18:00 +40°C° 0 mm 3 mps 704 mmHg 10%
    19:00 +39°C° 0 mm 3 mps 705 mmHg 12%
    20:00 +37°C° 0 mm 3 mps 705 mmHg 14%
    21:00 +36°C° 0 mm 3 mps 705 mmHg 17%
    22:00 +35°C° 0 mm 2 mps 705 mmHg 18%
    23:00 +34°C° 0 mm 2 mps 705 mmHg 20%

    24 February, Saturday

    Time Temperature Precipitation Wind Pressure Humidity
    00:00 +32°C° 0 mm 2 mps 705 mmHg 22%
    01:00 +31°C° 0 mm 2 mps 705 mmHg 23%
    02:00 +31°C° 0 mm 2 mps 704 mmHg 23%
    03:00 +30°C° 0 mm 2 mps 704 mmHg 24%
    04:00 +29°C° 0 mm 1 mps 704 mmHg 25%
    05:00 +29°C° 0 mm 1 mps 705 mmHg 26%
    06:00 +28°C° 0 mm 1 mps 705 mmHg 26%
    07:00 +29°C° 0 mm 1 mps 706 mmHg 24%
    08:00 +31°C° 0 mm 1 mps 706 mmHg 22%
    09:00 +32°C° 0 mm 1 mps 707 mmHg 20%
    10:00 +34°C° 0 mm 1 mps 707 mmHg 18%
    11:00 +35°C° 0 mm 1 mps 707 mmHg 15%
    12:00 +37°C° 0 mm 1 mps 706 mmHg 12%
    13:00 +39°C° 0 mm 2 mps 706 mmHg 11%
    14:00 +40°C° 0 mm 3 mps 705 mmHg 10%
    15:00 +42°C° 0 mm 4 mps 705 mmHg 9%
    16:00 +41°C° 0 mm 4 mps 705 mmHg 11%
    17:00 +40°C° 0 mm 5 mps 705 mmHg 13%
    18:00 +40°C° 0 mm 5 mps 705 mmHg 15%
    19:00 +37°C° 0 mm 5 mps 706 mmHg 21%
    20:00 +35°C° 0 mm 5 mps 706 mmHg 27%
    21:00 +33°C° 0 mm 4 mps 706 mmHg 33%
    22:00 +33°C° 0 mm 4 mps 706 mmHg 36%
    23:00 +31°C° 0 mm 3 mps 706 mmHg 39%
    Show more